Zurück zum Katalog

RADUGA 14

AktivMilitärGEO
NORAD 14725·PAYLOAD·🇷🇺 Russia

Gestartet Feb 15, 1984 von Baikonur Cosmodrome

Loading…

TLE

AktuellSource: Space-Track

Epoche: Sep 14, 2026, 14:12 UTC

1 14725U 84016A   26257.59226109 -.00000213  00000-0  00000-0 0  9991
2 14725   8.4021 310.2835 0001946 205.0112 137.5640  1.00280120118997

Verfolge RADUGA 14 in Echtzeit mit AllMySat

Download on the App Store